[[{"header":{"parameterUnit":"m.s-1","parameterCategory":1,"la1":30.2991,"la2":30.254,"lo1":-89.0895,"lo2":-89.0444,"dy":0.0017,"dx":0.0017,"nx":28,"ny":28,"refTime":"2023-07-20T21:00:00:Z","depth":0,"parameterNumber":2,"parameterNumberName":"U-component_of_WINDS"},"data":[0,0,0,0,0,0,0,0,0,0,0,0,0,0,0,0,0,0,0,0,0,0,0,0,0,0,0,0,0,0,0,0,0,0,0,0,0,0,0,0,0,0,0,0,0,0,0,0,0,0,0,0,0,0,0,0,0,0,4.3794,4.3795,0,4.3946,4.3948,4.3949,4.3892,4.3889,4.3885,4.3882,4.404,4.4047,4.4055,0,0,0,0,0,0,0,0,0,0,0,0,0,4.3453,4.346,4.3794,4.3796,4.3798,4.3946,4.3948,4.395,4.3893,4.3889,4.3884,4.388,4.4038,4.4046,4.4055,0,0,0,0,0,0,0,0,0,0,0,0,0,4.3603,4.3462,4.3793,4.3787,4.3788,4.3945,4.3948,4.395,4.3894,4.3888,4.3883,4.3878,4.4035,4.4046,4.4057,4.423,0,0,4.4091,4.4096,0,0,0,0,0,0,0,0,4.3594,4.3615,4.3786,4.3788,4.3789,4.3895,4.3886,4.4044,4.3895,4.3854,4.3882,4.3876,4.3996,4.401,4.405,4.4238,4.4244,4.4092,4.4098,4.4103,4.4106,0,0,0,0,0,0,0,4.3584,4.3608,4.3854,4.3788,4.379,4.3776,4.3792,4.3915,4.3952,4.3857,4.3853,4.3872,4.3996,4.404,4.4053,4.4247,4.4091,4.4101,4.4108,4.4113,4.458,4.4585,0,0,0,0,0,0,4.3573,4.36,4.3849,4.3859,4.3677,4.3786,4.3804,4.3866,4.3951,4.3959,4.3876,4.3868,4.4023,4.404,4.4059,4.4264,4.4103,4.4114,4.412,4.4574,4.4581,4.4587,0,0,0,0,0,0,4.3566,4.3596,4.3843,4.3728,4.3759,4.3798,4.3868,4.3872,4.3915,4.3965,4.3972,4.3914,4.402,4.4043,4.4187,4.4269,4.4119,4.4129,4.4567,4.4576,4.4584,4.4679,0,0,0,0,0,0,4.3556,4.3594,4.366,4.373,4.3765,4.3969,4.3873,4.3879,4.3935,4.3926,4.4002,4.401,4.4017,4.417,4.4198,4.4282,4.4138,4.456,4.4571,4.4581,4.4668,4.4689,4.4708,0,0,0,0,0,4.3544,4.3683,4.3664,4.3694,4.3849,4.3974,4.3994,4.3999,4.3942,4.4008,4.404,4.4008,4.4256,4.4186,4.4216,4.4305,4.4555,4.4568,4.458,4.466,4.4685,4.4707,0,0,0,0,0,0,4.3623,4.3692,4.3672,4.3837,4.39,4.3964,4.4049,4.4026,4.4107,4.4096,4.4099,4.4117,4.4264,4.4299,4.422,4.4475,4.4397,4.4416,4.4446,4.4471,4.449,4.4478,4.4147,0,0,0,0,0,4.3659,4.3754,4.3809,4.395,4.3982,4.401,4.4065,4.4062,4.4128,4.4155,4.4197,4.4262,4.4354,4.4415,4.4503,4.4673,4.4687,4.4749,4.4769,4.4784,4.4801,4.4889,4.4916,4.4629,4.4629,4.4629,0,0,4.3736,4.3785,4.3845,4.3966,4.4015,4.4112,4.4033,4.4141,4.4213,4.4171,4.4308,4.4342,4.4414,4.4571,4.4642,4.4604,4.4883,4.4801,4.4813,4.4821,4.4905,4.4932,4.4957,4.4638,4.4636,4.4635,0,0,4.3924,4.3972,4.4092,4.4141,4.4215,4.4232,4.4261,4.4328,4.4348,4.4485,4.4455,4.4541,4.4701,4.4752,4.48,4.5004,4.4976,4.5033,4.5134,4.522,4.5243,4.5263,4.5333,4.5358,4.5049,4.5049,4.5049,0,4.4009,4.4155,4.4157,4.4266,4.4318,4.4284,4.4404,4.4452,4.4552,4.4589,4.4545,4.4742,4.4789,4.4955,4.5004,4.5045,4.5076,4.5023,4.524,4.526,4.5278,4.5345,4.5371,4.5055,4.5055,4.5054,4.5053,0,4.4255,4.4356,4.4444,4.4538,4.4602,4.4716,4.4734,4.4798,4.4789,4.4811,4.4949,4.5004,4.51,4.514,4.5135,4.5305,4.5279,4.5238,4.5159,4.5312,4.5374,4.54,4.5064,4.5062,4.506,4.5059,0,0,4.4498,4.4589,4.4621,4.4661,4.4739,4.4817,4.4929,4.5021,4.5074,4.5144,4.5236,4.537,4.5331,4.5385,4.5384,4.5461,4.5614,4.541,4.5411,4.5443,4.5801,4.5829,4.5859,4.5597,4.5602,4.5606,4.5794,0,4.469,4.4885,4.4888,4.5067,4.5158,4.5125,4.5222,4.5279,4.5302,4.5383,4.5408,4.5501,4.5445,4.5476,4.555,4.558,4.5686,4.5567,4.5681,4.5685,4.5661,4.5892,4.5924,4.6099,4.5819,4.5823,4.5826,0,4.494,4.5014,4.5202,4.5261,4.53,4.5387,4.547,4.5549,4.5612,4.5623,4.5681,4.5668,4.578,4.5699,4.5852,4.5771,4.5818,4.5839,4.5846,4.5855,4.5763,4.5905,4.6155,4.618,4.5865,4.5862,4.5859,0,4.5094,4.5241,4.5371,4.5408,4.5482,4.5543,4.5577,4.5635,4.5689,4.5763,4.5797,4.5883,4.593,4.5996,4.6006,4.5946,4.6159,4.6079,4.6169,4.6169,4.6214,4.621,4.6472,4.6249,4.6248,4.6248,4.6247,0,4.5307,4.5422,4.5441,4.5521,4.5648,4.565,4.5775,4.5804,4.5856,4.5939,4.5917,4.5996,4.6006,4.6087,4.6096,4.6219,4.6242,4.6252,4.6252,4.6253,4.6251,4.6282,4.6269,4.6255,4.6253,4.6252,4.6251,0,4.55,4.5518,4.5656,4.5714,4.5731,4.5822,4.5871,4.5947,4.5966,4.6072,4.6097,4.6128,4.6222,4.6238,4.6351,4.6356,4.6502,4.6492,4.648,4.6478,4.6566,4.6556,4.6855,4.6892,4.6647,4.6649,4.6651,0,4.5633,4.572,4.5787,4.584,4.5877,4.5965,4.6019,4.6024,4.6081,4.6157,4.6223,4.6315,4.6388,4.654,4.6571,4.6656,4.6645,4.6744,4.6658,4.6654,4.6643,4.6636,4.6643,4.676,4.6763,4.6765,4.6767,0,4.5867,4.587,4.5949,4.603,4.6095,4.616,4.6221,4.6266,4.6279,4.6344,4.6439,4.6496,4.6608,4.6698,4.6781,4.6815,4.6793,4.6794,4.6818,4.6818,4.6806,4.681,4.6522,4.6787,4.6785,4.6783,4.6782,4.6781,4.6032,4.6106,4.6163,4.6251,4.6297,4.6353,4.6425,4.6452,4.6532,4.6622,4.662,4.6724,4.6781,4.689,4.693,4.701,4.6978,4.7015,4.7024,4.7032,4.7039,4.6795,4.7026,4.7025,4.7025,4.7024,4.7024,0,4.6261,4.6295,4.6376,4.646,4.6529,4.65,4.6565,4.6624,4.6715,4.6771,4.6842,4.6949,4.7036,4.7073,4.7158,4.7214,4.7206,4.7236,4.7231,4.7238,4.7064,4.7033,4.7241,4.7241,4.7241,4.7241,4.7241,4.7241,4.6388,4.6511,4.6521,4.6665,4.6699,4.6799,4.6838,4.6889,4.6933,4.7053,4.7124,4.7147,4.7195,4.7282,4.7359,4.7368,4.7399,4.7433,4.7437,4.7273,4.7251,4.723,4.72,4.7441,4.7441,4.7604,4.7605,4.7606]},{"header":{"parameterUnit":"m.s-1","parameterCategory":1,"la1":30.2991,"la2":30.254,"lo1":-89.0895,"lo2":-89.0444,"dy":0.0017,"dx":0.0017,"nx":28,"ny":28,"refTime":"2023-07-20T21:00:00:Z","depth":0,"parameterNumber":3,"parameterNumberName":"V-component_of_WINDS"},"data":[0,0,0,0,0,0,0,0,0,0,0,0,0,0,0,0,0,0,0,0,0,0,0,0,0,0,0,0,0,0,0,0,0,0,0,0,0,0,0,0,0,0,0,0,0,0,0,0,0,0,0,0,0,0,0,0,0,0,1.6971,1.6972,0,1.7084,1.7085,1.7086,1.7084,1.7083,1.7081,1.708,1.7195,1.72,1.7204,0,0,0,0,0,0,0,0,0,0,0,0,0,1.6753,1.6757,1.6971,1.6972,1.6974,1.7083,1.7085,1.7087,1.7084,1.7083,1.7081,1.7079,1.7194,1.7199,1.7204,0,0,0,0,0,0,0,0,0,0,0,0,0,1.6855,1.6758,1.6971,1.6986,1.6988,1.7083,1.7085,1.7087,1.7085,1.7083,1.708,1.7078,1.7192,1.7199,1.7205,1.7292,0,0,1.7226,1.7229,0,0,0,0,0,0,0,0,1.6849,1.6863,1.6982,1.6985,1.6988,1.7067,1.705,1.7156,1.7085,1.7048,1.708,1.7077,1.7155,1.7164,1.719,1.7298,1.7303,1.7226,1.723,1.7233,1.7235,0,0,0,0,0,0,0,1.6842,1.6858,1.7015,1.6984,1.6987,1.6987,1.6999,1.707,1.7113,1.7051,1.7051,1.7065,1.7156,1.7184,1.7193,1.7304,1.7226,1.7232,1.7236,1.7239,1.7488,1.749,0,0,0,0,0,0,1.6832,1.6852,1.7012,1.7019,1.6911,1.6992,1.7006,1.7044,1.7112,1.712,1.7067,1.7064,1.7174,1.7185,1.7197,1.7303,1.7233,1.724,1.7243,1.7485,1.7488,1.7491,0,0,0,0,0,0,1.6827,1.6846,1.7007,1.6935,1.6956,1.6999,1.7042,1.7048,1.7076,1.7124,1.7131,1.7088,1.7172,1.7188,1.7268,1.7307,1.7243,1.7249,1.7482,1.7486,1.749,1.7516,0,0,0,0,0,0,1.6821,1.6844,1.6878,1.6936,1.696,1.7077,1.7044,1.7052,1.7088,1.7086,1.7145,1.7153,1.7172,1.7258,1.7275,1.7315,1.7254,1.7479,1.7484,1.7488,1.7512,1.7521,1.7528,0,0,0,0,0,1.6813,1.6881,1.688,1.6899,1.7003,1.7079,1.7093,1.7113,1.7091,1.7125,1.7155,1.7151,1.73,1.7267,1.7286,1.7328,1.7477,1.7482,1.7488,1.7509,1.7519,1.7528,0,0,0,0,0,0,1.6827,1.6889,1.6888,1.6978,1.7023,1.7079,1.7123,1.7123,1.7176,1.7172,1.7194,1.7208,1.7288,1.7316,1.7278,1.7416,1.7385,1.7395,1.7395,1.7405,1.7413,1.7405,1.726,0,0,0,0,0,1.6841,1.6898,1.6949,1.7023,1.7046,1.708,1.7114,1.7125,1.7174,1.7193,1.7229,1.7276,1.7333,1.737,1.7426,1.7516,1.7529,1.7554,1.7562,1.7568,1.7577,1.7626,1.7638,1.751,1.751,1.751,0,0,1.687,1.691,1.6945,1.7027,1.7063,1.7121,1.7097,1.7159,1.7203,1.7202,1.7281,1.7309,1.7362,1.7448,1.7488,1.7474,1.7615,1.7576,1.758,1.7586,1.7633,1.7645,1.7656,1.7514,1.7513,1.7513,0,0,1.6952,1.6988,1.7054,1.7091,1.7146,1.7168,1.7184,1.724,1.7258,1.7337,1.7338,1.7389,1.7487,1.7525,1.7557,1.7652,1.765,1.7669,1.771,1.7758,1.7768,1.7777,1.7811,1.7822,1.7677,1.7677,1.7677,0,1.6981,1.7069,1.7087,1.7151,1.7186,1.7188,1.7254,1.7288,1.7359,1.7384,1.7367,1.7489,1.7526,1.762,1.7643,1.7668,1.7687,1.7663,1.7765,1.7774,1.7783,1.7815,1.7828,1.7679,1.7679,1.7679,1.7679,0,1.7101,1.7162,1.7208,1.7276,1.7316,1.7381,1.7409,1.7447,1.7454,1.7478,1.7558,1.7601,1.7665,1.7688,1.7696,1.7783,1.7772,1.776,1.773,1.7797,1.7827,1.784,1.7682,1.7681,1.7681,1.768,0,0,1.7197,1.7273,1.729,1.732,1.7381,1.7428,1.7492,1.7554,1.7586,1.7634,1.7688,1.7771,1.7759,1.7795,1.7807,1.7849,1.792,1.7831,1.7833,1.7846,1.8019,1.8028,1.8042,1.7919,1.7921,1.7923,1.8014,0,1.7286,1.7399,1.7417,1.7517,1.7573,1.7574,1.763,1.7672,1.7696,1.7747,1.7772,1.783,1.7811,1.7833,1.7874,1.7903,1.7955,1.7897,1.7969,1.7972,1.7957,1.8058,1.8069,1.8153,1.8026,1.8028,1.803,0,1.7405,1.7456,1.7561,1.7613,1.7637,1.7686,1.7744,1.7792,1.7841,1.7855,1.7894,1.7901,1.7966,1.7933,1.8023,1.7982,1.8013,1.8031,1.8035,1.8043,1.8005,1.807,1.818,1.8193,1.8049,1.8048,1.8046,0,1.7464,1.7559,1.7634,1.766,1.7722,1.7757,1.7785,1.783,1.7866,1.7916,1.7939,1.7996,1.8028,1.8072,1.8093,1.8067,1.8182,1.815,1.8195,1.8194,1.822,1.8218,1.8337,1.8239,1.8238,1.8238,1.8238,0,1.7562,1.7626,1.7661,1.7708,1.7779,1.7799,1.7869,1.7896,1.7936,1.7987,1.7991,1.8039,1.8064,1.8115,1.8132,1.8204,1.8218,1.8231,1.8235,1.8231,1.8229,1.8252,1.8247,1.8242,1.8241,1.824,1.824,0,1.7641,1.7667,1.7749,1.7801,1.7815,1.7866,1.791,1.7955,1.7977,1.8041,1.8058,1.8093,1.8153,1.8179,1.8253,1.8264,1.8346,1.8346,1.833,1.8332,1.8375,1.8371,1.8514,1.8533,1.8421,1.8422,1.8423,0,1.7702,1.7751,1.7808,1.7843,1.7871,1.7926,1.7963,1.7983,1.8021,1.8078,1.8116,1.8176,1.8225,1.8321,1.8354,1.841,1.8411,1.8457,1.8419,1.8414,1.8412,1.8409,1.8414,1.8464,1.8465,1.8466,1.8467,0,1.7807,1.7817,1.787,1.7926,1.7969,1.8015,1.8059,1.8087,1.8114,1.8156,1.8217,1.8255,1.8331,1.839,1.8448,1.8476,1.8476,1.8478,1.8491,1.8488,1.8478,1.8484,1.835,1.8475,1.8474,1.8474,1.8473,1.8473,1.7879,1.7923,1.797,1.8027,1.8062,1.8104,1.8148,1.8175,1.8227,1.829,1.8299,1.8364,1.841,1.8488,1.8518,1.8569,1.8557,1.8577,1.8582,1.8586,1.8589,1.8469,1.8579,1.8579,1.8579,1.8579,1.8579,0,1.7985,1.8014,1.8067,1.8129,1.8174,1.8169,1.8218,1.8256,1.8314,1.8356,1.8404,1.8474,1.8532,1.8568,1.8626,1.866,1.8661,1.8674,1.8672,1.8678,1.8596,1.8579,1.8672,1.8672,1.8672,1.8672,1.8672,1.8672,1.8045,1.8119,1.8134,1.8224,1.8254,1.8318,1.8346,1.8384,1.8418,1.8496,1.8543,1.8566,1.8606,1.8666,1.8719,1.8728,1.8749,1.8763,1.8771,1.8694,1.8684,1.8675,1.8659,1.8767,1.8767,1.8849,1.885,1.885]}]]